Location: Del Oro Observatory
(38.3044°N, 104.8119°W)
Time: 14:53:08
(UTC-06:00)

Cosmos 1602 Rocket - Visible Passes

Search period start: 03 May 2015 00:00
Search period end: 13 May 2015 00:00
Orbit: 604 x 635 km, 82.5° (Epoch: 03 May)

Date Brightness Start Highest point End Pass type
(mag) Time Alt. Az. Time Alt. Az. Time Alt. Az.
03 May 6.1 00:16:08 18° NNW 00:16:08 18° NNW 00:17:31 10° NNW visible
03 May 5.7 22:56:06 18° NNE 22:56:06 18° NNE 22:57:23 10° NNE visible
04 May 6.4 00:33:14 13° NW 00:33:14 13° NW 00:34:06 10° NNW visible
04 May 5.4 23:13:11 26° NNE 23:13:11 26° NNE 23:15:08 10° N visible
05 May 5.3 23:30:15 29° NNW 23:30:15 29° NNW 23:32:34 10° N visible
06 May 5.6 22:10:09 16° NE 22:10:09 16° NE 22:11:30 10° NE visible
06 May 5.7 23:47:17 23° NW 23:47:17 23° NW 23:49:40 10° NNW visible
07 May 4.9 22:27:10 29° NE 22:27:10 29° NE 22:29:39 10° NNE visible
08 May 6.2 00:04:17 15° WNW 00:04:17 15° WNW 00:06:10 10° NW visible
08 May 4.2 22:44:08 49° NNE 22:44:08 49° NNE 22:47:22 10° N visible
09 May 5.7 21:23:57 11° ENE 21:23:57 11° ENE 21:24:43 10° ENE visible
09 May 4.4 23:01:05 47° NW 23:01:05 47° NW 23:04:47 10° N visible
10 May 4.9 21:40:52 22° E 21:40:52 22° E 21:43:49 10° NE visible
10 May 5.3 23:17:59 26° W 23:18:12 26° WNW 23:21:49 10° NNW visible
11 May 3.9 21:57:43 43° E 21:57:47 43° E 22:01:55 10° NNE visible
11 May 6.1 23:34:50 13° W 23:36:00 14° WNW 23:38:12 10° NW visible
12 May 3.4 22:14:32 62° S 22:15:14 88° E 22:19:35 10° N visible
